PST,Max TemperatureF,Mean TemperatureF,Min TemperatureF,Max Dew PointF,MeanDew PointF,Min DewpointF,Max Humidity, Mean Humidity, Min Humidity, Max Sea Level PressureIn, Mean Sea Level PressureIn, Min Sea Level PressureIn, Max VisibilityMiles, Mean VisibilityMiles, Min VisibilityMiles, Max Wind SpeedMPH, Mean Wind SpeedMPH, Max Gust SpeedMPH,PrecipitationIn, CloudCover, Events, WindDirDegrees
2013-12-1,57,53,48,52,50,46,100,90,80,30.20,30.04,29.93,10,8,2,26,15,37,0.85,8,Rain,215
2013-12-2,53,43,33,47,36,32,92,77,62,30.07,30.00,29.92,10,10,9,20,9,35,0.04,6,Rain,285
2013-12-3,43,35,27,36,29,17,92,66,39,30.32,30.18,30.08,10,10,7,22,6,27,0.01,5,Rain,75
2013-12-4,38,30,22,26,19,11,100,66,32,30.36,30.33,30.31,10,6,0,17,7,23,0.00,1,Fog,187
2013-12-5,32,26,19,19,15,10,84,65,46,30.33,30.27,30.19,10,10,10,23,6,28,0.00,5,,130
2013-12-6,30,27,24,20,14,6,81,62,42,30.17,30.10,30.01,10,7,0,33,22,41,0.01,8,Snow,87
2013-12-7,30,23,15,7,3,-2,56,42,27,30.47,30.33,30.14,10,10,10,24,12,30,0.00,1,,99
2013-12-8,28,20,12,14,10,6,80,61,42,30.63,30.54,30.46,10,10,10,12,4,13,0.00,2,,146
2013-12-9,29,22,14,23,16,12,88,69,50,30.64,30.60,30.56,10,10,8,9,3,10,T,6,,150
2013-12-10,34,31,27,30,25,19,92,78,64,30.57,30.49,30.43,10,5,0,8,3,9,T,7,Fog-Snow,162
2013-12-11,41,34,27,32,29,25,100,85,69,30.42,30.34,30.22,10,3,0,14,3,17,T,4,Fog,287
2013-12-12,39,32,25,35,30,23,92,76,59,30.24,30.19,30.14,10,7,3,20,8,23,0.13,7,Rain,124
2013-12-13,45,41,36,42,40,35,100,95,89,30.45,30.40,30.24,10,3,0,12,3,14,0.03,8,Fog-Rain,287
2013-12-14,42,40,38,41,39,38,100,93,86,30.48,30.45,30.40,7,2,0,12,3,13,0.00,8,Fog,136
2013-12-15,46,43,39,43,40,37,100,95,89,30.50,30.47,30.44,10,6,0,9,3,10,0.02,8,Rain,98
2013-12-16,43,42,40,42,41,40,100,97,93,30.49,30.40,30.27,10,1,0,10,3,12,0.00,8,Fog,293
2013-12-17,40,38,36,40,37,35,100,93,85,30.27,30.23,30.21,3,2,0,10,4,12,T,8,Fog,147
2013-12-18,43,37,30,40,36,29,100,91,82,30.19,30.13,30.08,10,6,1,14,2,17,0.06,7,Rain,330
2013-12-19,37,33,28,32,30,27,100,88,76,30.35,30.28,30.16,10,8,5,8,2,9,0.00,6,,341
2013-12-20,46,40,33,43,34,31,96,91,86,30.24,30.06,29.90,10,6,2,15,7,20,0.06,8,Rain-Snow,149
2013-12-21,53,47,41,46,43,40,100,87,74,30.25,30.12,29.95,10,7,0,8,2,9,0.07,8,Rain,329
2013-12-22,53,49,45,47,46,44,100,89,77,30.36,30.32,30.24,10,10,4,10,5,12,0.05,7,Rain,151
2013-12-23,51,43,34,49,44,34,100,88,76,30.56,30.38,30.30,10,9,2,21,7,25,0.28,6,Rain,193
2013-12-24,39,35,30,38,35,30,100,96,92,30.64,30.59,30.52,4,0,0,8,3,10,0.00,7,Fog,275
2013-12-25,42,38,34,36,35,34,100,88,76,30.51,30.46,30.42,10,3,0,7,2,10,0.00,7,Fog,52
2013-12-26,43,38,33,36,34,32,100,85,70,30.42,30.34,30.25,10,3,0,6,1,8,0.00,7,Fog,110
2013-12-27,39,36,32,35,33,31,96,91,85,30.42,30.30,30.23,10,7,0,9,2,11,T,8,Fog,144
2013-12-28,45,41,37,38,36,35,92,81,70,30.52,30.48,30.42,10,8,6,8,2,10,0.00,7,,297
2013-12-29,40,37,34,36,35,33,100,93,85,30.48,30.41,30.32,10,9,6,10,3,12,0.00,8,,101
2013-12-30,42,39,35,38,36,35,100,90,79,30.30,30.25,30.21,10,6,1,12,3,14,T,7,Rain,133
2013-12-31,47,42,37,43,40,37,100,88,76,30.37,30.32,30.26,9,6,0,8,3,10,0.01,8,Fog-Rain,323